ELECTRON KICK STAGE R/B (49054 NORAD) Tracking and Keplerian Element Data

This shows tracking and keplerian element data for the satellite.

Feedback or suggestion? Click here.




ElementValue
Catalog49054
NameELECTRON KICK STAGE R/B
Epoch Orbit452
Epoch Day239.78492009
Epoch Year2021
RAAN122.7894
Inclination37.0205
Eccentricity0.0182588
Argument of Perigee341.5374
Mean Anonmoly17.8817
Mean Motion15.32777553
Decay Rate0.00015086
L11 49054U 21068C 21239.78492009 .00015086 00000-0 27171-3 0 9996
L22 49054 37.0205 122.7894 0182588 341.5374 17.8817 15.32777553 4521

Live tracking and technical data element details for ELECTRON KICK STAGE R/B (NORAD 49054). ELECTRON KICK STAGE R/B can be tracked NOW for your location showing map with azimuth and elevation plus other details from your city location.

Track the satellite on the map from your city or location and see movement details for azimuth, elevation, latitude, longitude, range, height, and movement on the map or in text.







IsCatalogInMostPopularTable: catalog: 49054, numindb: 12
Update: records affected: 1



GetName: 49054 ELECTRON KICK STAGE R/B

Hit Count: updated at: Fri, 24 Sep 2021 19:10:59 GMT